Wetterdaten: aktuell Samstag, 20.01.2018 21:28
Datum Zeit Innentemp. Temp Boden Temp Norden Innenfeuchte Licht Bodenfeuchte Feuchte Nord Luftdruck Regenmenge Windstrke Windrichtung Windrichtung Sonne Zeit Windchill
20.01.2018 21:28 20,9 C 3,3 C 1,6 C 54 % 0 % 94 % 98 % 999 hPa 0,0 l/m 0,0 km/h O-SO 120 0 min 1,6 C
20.01.2018 21:23 20,9 C 3,3 C 1,6 C 54 % 0 % 94 % 98 % 999 hPa 0,0 l/m 0,0 km/h O-SO 120 0 min 1,6 C
20.01.2018 21:18 20,9 C 3,3 C 1,6 C 54 % 0 % 94 % 98 % 999 hPa 0,0 l/m 0,0 km/h O-SO 120 0 min 1,6 C
20.01.2018 21:13 20,9 C 3,3 C 1,6 C 54 % 0 % 94 % 98 % 999 hPa 0,0 l/m 0,0 km/h O-SO 120 0 min 1,6 C
20.01.2018 21:08 20,9 C 3,3 C 1,6 C 54 % 0 % 94 % 98 % 999 hPa 0,0 l/m 0,0 km/h O-SO 120 0 min 1,6 C
20.01.2018 21:03 20,8 C 3,3 C 1,5 C 54 % 0 % 94 % 98 % 999 hPa 0,0 l/m 0,0 km/h O-SO 120 0 min 1,5 C
20.01.2018 20:58 20,8 C 3,3 C 1,5 C 54 % 0 % 94 % 98 % 999 hPa 0,0 l/m 0,0 km/h O-SO 120 0 min 1,5 C
20.01.2018 20:53 20,9 C 3,3 C 1,5 C 54 % 0 % 94 % 98 % 999 hPa 0,0 l/m 0,0 km/h O-SO 120 0 min 1,5 C
20.01.2018 20:48 20,8 C 3,3 C 1,5 C 54 % 0 % 94 % 98 % 999 hPa 0,0 l/m 0,0 km/h O-SO 120 0 min 1,5 C
20.01.2018 20:43 20,8 C 3,3 C 1,4 C 54 % 0 % 94 % 98 % 999 hPa 0,0 l/m 0,0 km/h O-SO 120 0 min 1,4 C
20.01.2018 20:38 20,8 C 3,3 C 1,4 C 54 % 0 % 94 % 98 % 999 hPa 0,0 l/m 0,0 km/h O-SO 120 0 min 1,4 C
20.01.2018 20:33 20,8 C 3,3 C 1,4 C 54 % 0 % 94 % 98 % 999 hPa 0,0 l/m 0,0 km/h O-NO 60 0 min 1,4 C
20.01.2018 20:28 20,8 C 3,3 C 1,4 C 54 % 0 % 94 % 98 % 999 hPa 0,0 l/m 0,8 km/h O-NO 60 0 min 1,4 C
20.01.2018 20:23 20,7 C 3,3 C 1,4 C 54 % 0 % 94 % 98 % 999 hPa 0,0 l/m 4,3 km/h O-NO22.5 65 0 min 1,4 C
20.01.2018 20:18 20,7 C 3,3 C 1,4 C 54 % 0 % 94 % 98 % 999 hPa 0,0 l/m 0,3 km/h O 90 0 min 1,4 C
20.01.2018 20:13 20,8 C 3,3 C 1,4 C 54 % 0 % 94 % 98 % 999 hPa 0,0 l/m 0,3 km/h O22.5 90 0 min 1,4 C
20.01.2018 20:08 20,8 C 3,3 C 1,4 C 55 % 0 % 94 % 98 % 999 hPa 0,0 l/m 0,0 km/h O-NO 70 0 min 1,4 C
20.01.2018 20:03 20,7 C 3,3 C 1,4 C 55 % 0 % 94 % 98 % 999 hPa 0,0 l/m 0,1 km/h O-NO 70 0 min 1,4 C
20.01.2018 19:58 20,6 C 3,3 C 1,4 C 55 % 0 % 94 % 98 % 999 hPa 0,0 l/m 2,3 km/h O-SO 105 0 min 1,4 C
20.01.2018 19:52 20,6 C 3,3 C 1,4 C 55 % 0 % 94 % 98 % 999 hPa 0,0 l/m 0,2 km/h NO 45 0 min 1,4 C
20.01.2018 19:48 20,6 C 3,3 C 1,4 C 55 % 0 % 94 % 98 % 999 hPa 0,0 l/m 0,2 km/h NO 45 0 min 1,4 C
20.01.2018 19:43 20,6 C 3,3 C 1,4 C 55 % 0 % 94 % 98 % 999 hPa 0,0 l/m 0,4 km/h NO 50 0 min 1,4 C
20.01.2018 19:38 20,6 C 3,3 C 1,4 C 54 % 0 % 94 % 98 % 999 hPa 0,0 l/m 4,3 km/h O22.5 85 0 min 1,4 C
20.01.2018 19:33 20,6 C 3,3 C 1,4 C 54 % 0 % 94 % 98 % 999 hPa 0,0 l/m 5,9 km/h O22.5 90 0 min -0,4 C
20.01.2018 19:28 20,6 C 3,3 C 1,3 C 54 % 0 % 94 % 98 % 999 hPa 0,0 l/m 0,4 km/h O22.5 85 0 min 1,3 C
20.01.2018 19:23 20,5 C 3,3 C 1,3 C 54 % 0 % 94 % 98 % 999 hPa 0,0 l/m 0,7 km/h O-NO 60 0 min 1,3 C
20.01.2018 19:18 20,5 C 3,3 C 1,3 C 54 % 0 % 94 % 97 % 999 hPa 0,0 l/m 5,6 km/h O-NO45 70 0 min -0,4 C
20.01.2018 19:13 20,5 C 3,3 C 1,3 C 54 % 0 % 94 % 97 % 999 hPa 0,0 l/m 7,3 km/h O-NO45 65 0 min -1,0 C
20.01.2018 19:08 20,5 C 3,3 C 1,3 C 54 % 0 % 94 % 97 % 999 hPa 0,0 l/m 4,6 km/h O45 100 0 min 0,1 C
20.01.2018 19:03 20,5 C 3,3 C 1,3 C 54 % 0 % 94 % 97 % 999 hPa 0,0 l/m 0,4 km/h O22.5 95 0 min 1,3 C
20.01.2018 18:58 20,6 C 3,3 C 1,3 C 54 % 0 % 94 % 97 % 999 hPa 0,0 l/m 0,6 km/h O22.5 85 0 min 1,3 C
20.01.2018 18:53 20,5 C 3,3 C 1,4 C 54 % 0 % 94 % 97 % 999 hPa 0,0 l/m 1,1 km/h O-NO22.5 65 0 min 1,4 C
20.01.2018 18:48 20,5 C 3,3 C 1,5 C 54 % 0 % 94 % 97 % 999 hPa 0,0 l/m 8,1 km/h O22.5 80 0 min -1,0 C
20.01.2018 18:43 20,5 C 3,3 C 1,5 C 54 % 0 % 94 % 97 % 999 hPa 0,0 l/m 2,5 km/h O-NO 70 0 min 1,5 C
20.01.2018 18:38 20,5 C 3,3 C 1,6 C 54 % 0 % 94 % 97 % 999 hPa 0,0 l/m 0,7 km/h O 80 0 min 1,6 C
20.01.2018 18:33 20,4 C 3,3 C 1,6 C 54 % 0 % 94 % 97 % 999 hPa 0,0 l/m 0,0 km/h O 85 0 min 1,6 C
20.01.2018 18:28 20,5 C 3,3 C 1,6 C 54 % 0 % 94 % 97 % 999 hPa 0,0 l/m 7,0 km/h O-NO22.5 60 0 min -0,5 C
20.01.2018 18:23 20,4 C 3,3 C 1,6 C 54 % 0 % 94 % 97 % 999 hPa 0,0 l/m 8,6 km/h O-NO45 75 0 min -1,0 C
20.01.2018 18:18 20,4 C 3,3 C 1,7 C 54 % 0 % 94 % 97 % 1000 hPa 0,0 l/m 8,7 km/h NO45 50 0 min -0,9 C
20.01.2018 18:12 20,4 C 3,3 C 1,7 C 55 % 0 % 94 % 97 % 1000 hPa 0,0 l/m 7,9 km/h O-NO45 65 0 min -0,7 C
20.01.2018 18:08 20,4 C 3,3 C 1,8 C 55 % 0 % 94 % 97 % 1000 hPa 0,0 l/m 12,4 km/h O45 85 0 min -1,7 C
20.01.2018 18:03 20,4 C 3,3 C 1,9 C 55 % 0 % 94 % 97 % 1000 hPa 0,0 l/m 12,8 km/h O-NO22.5 60 0 min -1,7 C
20.01.2018 17:58 20,4 C 3,3 C 2,1 C 55 % 0 % 94 % 97 % 1000 hPa 0,0 l/m 12,2 km/h O-NO22.5 70 0 min -1,3 C
20.01.2018 17:53 20,4 C 3,3 C 2,1 C 55 % 0 % 94 % 97 % 1000 hPa 0,0 l/m 13,9 km/h O-NO45 65 0 min -1,6 C
20.01.2018 17:48 20,4 C 3,3 C 2,2 C 55 % 0 % 94 % 97 % 1000 hPa 0,0 l/m 11,3 km/h O-NO22.5 60 0 min -1,0 C
20.01.2018 17:43 20,4 C 3,3 C 2,3 C 56 % 0 % 94 % 97 % 1000 hPa 0,0 l/m 14,9 km/h O-NO22.5 65 0 min -1,6 C
20.01.2018 17:38 20,4 C 3,3 C 2,4 C 56 % 0 % 94 % 97 % 1000 hPa 0,0 l/m 13,8 km/h O-NO45 65 0 min -1,2 C
20.01.2018 17:33 20,3 C 3,3 C 2,4 C 56 % 0 % 94 % 97 % 1000 hPa 0,0 l/m 13,0 km/h NO45 50 0 min -1,1 C
20.01.2018 17:28 20,3 C 3,3 C 2,5 C 56 % 0 % 94 % 97 % 1000 hPa 0,0 l/m 10,4 km/h O-NO22.5 65 0 min -0,4 C
20.01.2018 17:23 20,3 C 3,3 C 2,6 C 56 % 0 % 94 % 96 % 1000 hPa 0,0 l/m 7,5 km/h O-NO45 60 0 min 0,5 C
20.01.2018 17:18 20,3 C 3,3 C 2,6 C 55 % 0 % 94 % 97 % 1000 hPa 0,0 l/m 8,6 km/h O-NO45 65 0 min 0,1 C
20.01.2018 17:13 20,3 C 3,3 C 2,7 C 56 % 0 % 94 % 97 % 1000 hPa 0,0 l/m 11,2 km/h O-NO22.5 65 0 min -0,4 C
20.01.2018 17:08 20,2 C 3,3 C 2,8 C 55 % 0 % 94 % 97 % 1000 hPa 0,0 l/m 11,1 km/h NO45 55 0 min -0,2 C
20.01.2018 17:03 20,2 C 3,3 C 3,0 C 55 % 0 % 94 % 97 % 1000 hPa 0,0 l/m 13,0 km/h O-NO45 60 0 min -0,4 C
20.01.2018 16:58 20,2 C 3,3 C 3,0 C 56 % 0 % 94 % 97 % 1000 hPa 0,0 l/m 12,7 km/h O-NO22.5 60 0 min -0,3 C
20.01.2018 16:53 20,2 C 3,3 C 3,1 C 56 % 0 % 94 % 97 % 1001 hPa 0,0 l/m 7,7 km/h O-NO22.5 60 0 min 1,0 C
20.01.2018 16:48 20,2 C 3,3 C 3,1 C 56 % 1 % 94 % 97 % 1001 hPa 0,0 l/m 6,8 km/h O-NO22.5 75 0 min 1,3 C
20.01.2018 16:43 20,2 C 3,3 C 3,1 C 56 % 1 % 94 % 97 % 1001 hPa 0,0 l/m 3,1 km/h O-NO45 75 0 min 3,1 C
20.01.2018 16:38 20,2 C 3,3 C 3,2 C 56 % 1 % 94 % 97 % 1001 hPa 0,0 l/m 5,5 km/h O-NO 70 0 min 1,8 C
20.01.2018 16:33 20,2 C 3,3 C 3,2 C 56 % 1 % 94 % 97 % 1001 hPa 0,0 l/m 5,5 km/h O-SO45 115 0 min 1,8 C
20.01.2018 16:28 20,1 C 3,3 C 3,2 C 55 % 1 % 94 % 97 % 1001 hPa 0,0 l/m 9,2 km/h O45 90 0 min 0,7 C
20.01.2018 16:23 20,1 C 3,3 C 3,3 C 55 % 1 % 94 % 97 % 1001 hPa 0,0 l/m 5,6 km/h O22.5 95 0 min 1,9 C
20.01.2018 16:18 20,1 C 3,3 C 3,3 C 55 % 3 % 94 % 97 % 1002 hPa 0,2 l/m 5,7 km/h O-SO45 105 0 min 1,9 C
20.01.2018 16:13 20,1 C 3,3 C 3,3 C 55 % 3 % 94 % 97 % 1002 hPa 0,0 l/m 1,7 km/h O-SO45 105 0 min 3,3 C
20.01.2018 16:08 20,0 C 3,2 C 3,3 C 55 % 4 % 94 % 97 % 1002 hPa 0,2 l/m 0,7 km/h O-SO 115 0 min 3,3 C
20.01.2018 16:03 20,0 C 3,3 C 3,3 C 55 % 3 % 94 % 97 % 1002 hPa 0,0 l/m 11,3 km/h O-SO22.5 115 0 min 0,3 C
20.01.2018 15:58 20,0 C 3,2 C 3,4 C 55 % 4 % 94 % 97 % 1002 hPa 0,0 l/m 10,0 km/h O-SO22.5 120 0 min 0,7 C
20.01.2018 15:53 20,0 C 3,3 C 3,4 C 55 % 6 % 94 % 97 % 1002 hPa 0,0 l/m 7,0 km/h O22.5 100 0 min 1,6 C
20.01.2018 15:48 19,9 C 3,4 C 3,4 C 55 % 6 % 94 % 97 % 1002 hPa 0,2 l/m 5,3 km/h O45 85 0 min 2,1 C
20.01.2018 15:43 19,9 C 3,4 C 3,5 C 55 % 8 % 94 % 97 % 1002 hPa 0,0 l/m 5,6 km/h O-SO45 105 0 min 2,1 C
20.01.2018 15:38 19,9 C 3,4 C 3,4 C 55 % 9 % 94 % 97 % 1002 hPa 0,0 l/m 1,4 km/h O22.5 95 0 min 3,4 C
20.01.2018 15:33 19,9 C 3,3 C 3,4 C 55 % 8 % 94 % 97 % 1003 hPa 0,2 l/m 6,5 km/h O-SO45 105 0 min 1,7 C
20.01.2018 15:28 19,9 C 3,4 C 3,5 C 55 % 7 % 94 % 97 % 1003 hPa 0,0 l/m 6,2 km/h O-SO45 120 0 min 1,9 C
20.01.2018 15:23 19,9 C 3,4 C 3,5 C 55 % 8 % 94 % 97 % 1003 hPa 0,2 l/m 9,9 km/h SO45 135 0 min 0,9 C
20.01.2018 15:18 19,9 C 3,4 C 3,4 C 55 % 10 % 94 % 97 % 1003 hPa 0,0 l/m 10,3 km/h SO67.5 130 0 min 0,7 C
20.01.2018 15:13 19,9 C 3,4 C 3,5 C 55 % 11 % 94 % 97 % 1003 hPa 0,2 l/m 12,2 km/h SO45 125 0 min 0,4 C
20.01.2018 15:08 19,9 C 3,5 C 3,5 C 55 % 13 % 94 % 97 % 1003 hPa 0,0 l/m 7,7 km/h SO22.5 130 0 min 1,5 C
20.01.2018 15:03 19,9 C 3,4 C 3,5 C 55 % 14 % 94 % 97 % 1003 hPa 0,0 l/m 4,3 km/h SO 135 0 min 3,5 C
20.01.2018 14:58 19,9 C 3,5 C 3,5 C 55 % 13 % 94 % 97 % 1003 hPa 0,2 l/m 10,4 km/h O-SO22.5 115 0 min 0,8 C
20.01.2018 14:53 19,9 C 3,5 C 3,5 C 55 % 15 % 94 % 97 % 1003 hPa 0,2 l/m 9,4 km/h SO45 145 0 min 1,0 C
20.01.2018 14:48 19,9 C 3,4 C 3,5 C 55 % 17 % 94 % 97 % 1004 hPa 0,0 l/m 8,4 km/h SO22.5 125 0 min 1,3 C
20.01.2018 14:43 19,9 C 3,4 C 3,5 C 55 % 17 % 94 % 97 % 1004 hPa 0,2 l/m 7,8 km/h SO45 135 0 min 1,4 C
20.01.2018 14:38 19,9 C 3,4 C 3,5 C 55 % 15 % 94 % 97 % 1004 hPa 0,2 l/m 9,8 km/h SO22.5 145 0 min 0,9 C
20.01.2018 14:33 19,8 C 3,4 C 3,5 C 55 % 15 % 94 % 97 % 1004 hPa 0,0 l/m 11,0 km/h S-SO67.5 155 0 min 0,6 C
20.01.2018 14:28 19,9 C 3,4 C 3,6 C 55 % 17 % 94 % 97 % 1004 hPa 0,0 l/m 6,1 km/h O-SO22.5 120 0 min 2,1 C
20.01.2018 14:23 19,9 C 3,4 C 3,6 C 55 % 20 % 94 % 97 % 1004 hPa 0,2 l/m 9,9 km/h O-SO45 120 0 min 1,0 C
20.01.2018 14:17 19,8 C 3,5 C 3,6 C 55 % 19 % 94 % 97 % 1005 hPa 0,0 l/m 14,6 km/h SO22.5 125 0 min 0,1 C
20.01.2018 14:13 19,9 C 3,5 C 3,6 C 55 % 20 % 94 % 97 % 1005 hPa 0,2 l/m 7,4 km/h SO45 125 0 min 1,7 C
20.01.2018 14:08 19,9 C 3,7 C 3,6 C 55 % 20 % 94 % 97 % 1005 hPa 0,2 l/m 8,7 km/h SO22.5 130 0 min 1,3 C
20.01.2018 14:03 19,9 C 3,6 C 3,6 C 55 % 21 % 94 % 97 % 1005 hPa 0,0 l/m 0,7 km/h S 170 0 min 3,6 C
20.01.2018 13:58 20,0 C 3,5 C 3,6 C 55 % 25 % 94 % 97 % 1005 hPa 0,2 l/m 6,2 km/h S-SO22.5 150 0 min 2,0 C
20.01.2018 13:53 20,0 C 3,7 C 3,6 C 55 % 25 % 94 % 97 % 1005 hPa 0,2 l/m 6,9 km/h S45 175 0 min 1,8 C
20.01.2018 13:48 20,0 C 3,5 C 3,6 C 54 % 26 % 94 % 97 % 1006 hPa 0,0 l/m 5,5 km/h SO22.5 145 0 min 2,3 C
20.01.2018 13:43 20,0 C 3,5 C 3,6 C 54 % 27 % 94 % 97 % 1006 hPa 0,2 l/m 3,3 km/h S 180 0 min 3,6 C
20.01.2018 13:38 20,1 C 3,5 C 3,6 C 54 % 27 % 94 % 97 % 1006 hPa 0,2 l/m 9,4 km/h S-SO45 155 0 min 1,1 C
20.01.2018 13:33 20,0 C 3,5 C 3,5 C 54 % 28 % 94 % 97 % 1006 hPa 0,2 l/m 9,4 km/h S-SO45 155 0 min 1,0 C
20.01.2018 13:28 20,1 C 3,5 C 3,5 C 54 % 28 % 94 % 97 % 1006 hPa 0,0 l/m 8,6 km/h SO22.5 140 0 min 1,2 C
20.01.2018 13:23 20,1 C 3,5 C 3,5 C 54 % 28 % 94 % 97 % 1007 hPa 0,2 l/m 8,9 km/h S45 170 0 min 1,1 C
20.01.2018 13:18 20,1 C 3,5 C 3,5 C 54 % 28 % 94 % 97 % 1007 hPa 0,0 l/m 0,9 km/h SO67.5 145 0 min 3,5 C
20.01.2018 13:13 20,1 C 3,5 C 3,4 C 54 % 28 % 94 % 97 % 1007 hPa 0,2 l/m 6,4 km/h SO67.5 145 0 min 1,7 C
20.01.2018 13:08 20,1 C 3,5 C 3,4 C 54 % 28 % 94 % 97 % 1007 hPa 0,0 l/m 2,5 km/h S45 170 0 min 3,4 C
20.01.2018 13:03 20,1 C 3,5 C 3,3 C 54 % 29 % 94 % 97 % 1007 hPa 0,2 l/m 6,7 km/h S45 170 0 min 1,5 C
20.01.2018 12:58 20,1 C 3,4 C 3,3 C 54 % 33 % 94 % 97 % 1007 hPa 0,0 l/m 10,1 km/h S-SW22.5 195 0 min 0,6 C
20.01.2018 12:53 20,1 C 3,4 C 3,2 C 54 % 35 % 94 % 97 % 1007 hPa 0,2 l/m 5,3 km/h SO22.5 145 0 min 1,9 C
20.01.2018 12:48 20,1 C 3,4 C 3,2 C 54 % 34 % 94 % 97 % 1008 hPa 0,0 l/m 5,7 km/h S-SO45 150 0 min 1,8 C
20.01.2018 12:43 20,1 C 3,4 C 3,2 C 54 % 30 % 94 % 97 % 1008 hPa 0,2 l/m 7,0 km/h S67.5 190 0 min 1,3 C
20.01.2018 12:38 20,1 C 3,3 C 3,1 C 54 % 32 % 95 % 97 % 1008 hPa 0,0 l/m 2,6 km/h S-SW 195 0 min 3,1 C
20.01.2018 12:33 20,1 C 3,3 C 3,0 C 54 % 34 % 95 % 97 % 1008 hPa 0,0 l/m 3,0 km/h S-SW 195 0 min 3,0 C
20.01.2018 12:28 20,0 C 3,3 C 3,0 C 54 % 36 % 95 % 97 % 1008 hPa 0,2 l/m 6,6 km/h S-SW 200 0 min 1,2 C
20.01.2018 12:23 20,1 C 3,3 C 2,9 C 54 % 38 % 95 % 98 % 1008 hPa 0,0 l/m 5,0 km/h S-SW 200 0 min 1,7 C
20.01.2018 12:18 20,1 C 3,1 C 2,9 C 53 % 36 % 95 % 97 % 1008 hPa 0,0 l/m 0,2 km/h SO 140 0 min 2,9 C
20.01.2018 12:13 20,1 C 3,1 C 2,8 C 53 % 36 % 95 % 97 % 1009 hPa 0,2 l/m 3,0 km/h SO 140 0 min 2,8 C
20.01.2018 12:08 20,2 C 3,0 C 2,8 C 53 % 37 % 95 % 97 % 1009 hPa 0,0 l/m 0,0 km/h SO 140 0 min 2,8 C
20.01.2018 12:03 20,1 C 3,1 C 2,7 C 53 % 35 % 95 % 97 % 1009 hPa 0,2 l/m 0,0 km/h SO 140 0 min 2,7 C
20.01.2018 11:58 20,1 C 2,9 C 2,6 C 53 % 35 % 95 % 97 % 1009 hPa 0,0 l/m 0,0 km/h SO 140 0 min 2,6 C
20.01.2018 11:53 20,0 C 2,9 C 2,6 C 53 % 35 % 95 % 97 % 1009 hPa 0,0 l/m 0,0 km/h SO 140 0 min 2,6 C
20.01.2018 11:48 20,0 C 2,9 C 2,5 C 53 % 33 % 95 % 97 % 1009 hPa 0,2 l/m 0,0 km/h SO 140 0 min 2,5 C
20.01.2018 11:43 20,1 C 2,7 C 2,5 C 53 % 32 % 95 % 97 % 1009 hPa 0,0 l/m 0,0 km/h SO 140 0 min 2,5 C
20.01.2018 11:38 20,0 C 2,7 C 2,5 C 53 % 34 % 95 % 97 % 1009 hPa 0,0 l/m 1,3 km/h SO 140 0 min 2,5 C
20.01.2018 11:33 20,0 C 2,6 C 2,4 C 53 % 31 % 95 % 97 % 1009 hPa 0,2 l/m 6,8 km/h S45 170 0 min 0,5 C
20.01.2018 11:28 20,1 C 2,6 C 2,3 C 53 % 31 % 95 % 97 % 1010 hPa 0,0 l/m 0,8 km/h S-SO22.5 150 0 min 2,3 C
20.01.2018 11:23 20,0 C 2,6 C 2,3 C 53 % 23 % 95 % 97 % 1010 hPa 0,2 l/m 1,3 km/h SO 145 0 min 2,3 C
20.01.2018 11:18 20,0 C 2,5 C 2,3 C 53 % 26 % 95 % 97 % 1010 hPa 0,0 l/m 1,0 km/h S-SO22.5 150 0 min 2,3 C
20.01.2018 11:13 20,0 C 2,5 C 2,2 C 53 % 24 % 95 % 97 % 1010 hPa 0,0 l/m 0,0 km/h S-SO 160 0 min 2,2 C
20.01.2018 11:08 20,0 C 2,5 C 2,1 C 53 % 24 % 95 % 97 % 1010 hPa 0,2 l/m 0,3 km/h O-NO67.5 75 0 min 2,1 C
20.01.2018 11:03 20,0 C 2,4 C 2,1 C 53 % 30 % 95 % 97 % 1010 hPa 0,0 l/m 0,0 km/h NO 45 0 min 2,1 C
20.01.2018 10:58 20,0 C 2,5 C 2,0 C 53 % 24 % 95 % 97 % 1010 hPa 0,2 l/m 0,0 km/h NO 45 0 min 2,0 C
20.01.2018 10:53 20,1 C 2,4 C 1,9 C 53 % 18 % 95 % 97 % 1010 hPa 0,0 l/m 0,0 km/h NO 45 0 min 1,9 C
20.01.2018 10:48 20,1 C 2,3 C 1,9 C 53 % 21 % 95 % 97 % 1010 hPa 0,0 l/m 0,0 km/h NO 45 0 min 1,9 C
20.01.2018 10:43 20,1 C 2,2 C 1,8 C 53 % 31 % 95 % 97 % 1010 hPa 0,2 l/m 0,0 km/h NO 45 0 min 1,8 C
20.01.2018 10:38 20,0 C 2,1 C 1,7 C 53 % 36 % 95 % 97 % 1010 hPa 0,0 l/m 0,0 km/h NO 45 0 min 1,7 C
20.01.2018 10:33 20,0 C 2,1 C 1,7 C 53 % 40 % 95 % 97 % 1010 hPa 0,0 l/m 0,0 km/h NO 45 0 min 1,7 C
20.01.2018 10:28 20,0 C 2,1 C 1,6 C 53 % 43 % 95 % 97 % 1011 hPa 0,2 l/m 0,0 km/h NO 45 0 min 1,6 C
20.01.2018 10:23 20,0 C 1,9 C 1,5 C 53 % 35 % 95 % 97 % 1011 hPa 0,0 l/m 0,0 km/h NO 45 0 min 1,5 C
20.01.2018 10:18 20,1 C 1,8 C 1,4 C 53 % 35 % 94 % 97 % 1011 hPa 0,0 l/m 5,6 km/h NO 45 0 min -0,3 C
20.01.2018 10:13 20,2 C 1,8 C 1,4 C 53 % 38 % 94 % 97 % 1011 hPa 0,0 l/m 6,1 km/h NO 55 0 min -0,5 C
20.01.2018 10:08 20,2 C 1,8 C 1,3 C 54 % 37 % 95 % 97 % 1011 hPa 0,0 l/m 3,0 km/h O-NO 70 0 min 1,3 C
20.01.2018 10:03 20,2 C 1,8 C 1,3 C 55 % 34 % 95 % 97 % 1011 hPa 0,0 l/m 0,0 km/h S-SO 155 0 min 1,3 C
20.01.2018 09:58 20,2 C 1,8 C 1,2 C 56 % 34 % 95 % 97 % 1011 hPa 0,0 l/m 0,0 km/h S-SO 155 0 min 1,2 C
20.01.2018 09:53 20,1 C 1,7 C 1,2 C 56 % 43 % 95 % 97 % 1011 hPa 0,0 l/m 0,0 km/h S-SO 155 0 min 1,2 C
20.01.2018 09:48 20,1 C 1,6 C 1,1 C 57 % 45 % 95 % 97 % 1011 hPa 0,0 l/m 0,0 km/h S-SO 155 0 min 1,1 C
20.01.2018 09:43 20,1 C 1,5 C 1,0 C 57 % 34 % 95 % 97 % 1011 hPa 0,2 l/m 0,0 km/h S-SO 155 0 min 1,0 C
20.01.2018 09:38 20,0 C 1,5 C 1,0 C 57 % 20 % 95 % 97 % 1011 hPa 0,0 l/m 0,0 km/h S-SO 155 0 min 1,0 C
20.01.2018 09:33 20,0 C 1,5 C 1,0 C 57 % 18 % 95 % 97 % 1011 hPa 0,0 l/m 0,0 km/h S-SO 155 0 min 1,0 C
20.01.2018 09:28 20,0 C 1,3 C 0,9 C 57 % 23 % 95 % 97 % 1011 hPa 0,2 l/m 0,0 km/h S-SO 155 0 min 0,9 C
20.01.2018 09:23 19,9 C 1,3 C 0,9 C 57 % 22 % 95 % 97 % 1011 hPa 0,0 l/m 0,3 km/h S-SO 155 0 min 0,9 C
20.01.2018 09:18 19,8 C 1,1 C 0,8 C 57 % 19 % 95 % 96 % 1011 hPa 0,0 l/m 0,4 km/h S-SO 155 0 min 0,8 C
20.01.2018 09:13 19,8 C 1,1 C 0,7 C 57 % 18 % 95 % 96 % 1011 hPa 0,0 l/m 0,3 km/h S-SO 155 0 min 0,7 C
20.01.2018 09:08 19,7 C 1,0 C 0,7 C 57 % 14 % 95 % 96 % 1012 hPa 0,0 l/m 0,3 km/h S-SO 155 0 min 0,7 C
20.01.2018 09:03 19,6 C 1,0 C 0,6 C 57 % 12 % 95 % 96 % 1012 hPa 0,0 l/m 0,7 km/h S-SO 155 0 min 0,6 C
20.01.2018 08:58 19,6 C 1,0 C 0,5 C 57 % 13 % 95 % 96 % 1012 hPa 0,2 l/m 1,0 km/h S-SO 155 0 min 0,5 C
20.01.2018 08:53 19,5 C 1,0 C 0,5 C 57 % 15 % 95 % 96 % 1012 hPa 0,0 l/m 0,0 km/h S-SO 155 0 min 0,5 C
20.01.2018 08:48 19,5 C 1,0 C 0,5 C 57 % 15 % 95 % 96 % 1012 hPa 0,0 l/m 0,0 km/h S-SO 155 0 min 0,5 C
20.01.2018 08:43 19,4 C 1,0 C 0,4 C 57 % 16 % 95 % 96 % 1012 hPa 0,0 l/m 0,0 km/h S-SO 155 0 min 0,4 C
20.01.2018 08:38 19,3 C 1,1 C 0,4 C 57 % 16 % 95 % 96 % 1012 hPa 0,2 l/m 0,0 km/h S-SO 155 0 min 0,4 C
20.01.2018 08:33 19,2 C 0,9 C 0,4 C 57 % 12 % 95 % 96 % 1012 hPa 0,0 l/m 0,0 km/h S-SO 155 0 min 0,4 C
20.01.2018 08:28 19,2 C 0,9 C 0,3 C 57 % 10 % 95 % 96 % 1012 hPa 0,0 l/m 0,0 km/h S-SO 155 0 min 0,3 C
20.01.2018 08:23 19,2 C 0,8 C 0,3 C 57 % 8 % 95 % 96 % 1012 hPa 0,0 l/m 0,0 km/h S-SO 155 0 min 0,3 C
20.01.2018 08:18 19,2 C 0,7 C 0,3 C 57 % 6 % 95 % 95 % 1012 hPa 0,0 l/m 0,0 km/h S-SO 155 0 min 0,3 C
20.01.2018 08:13 19,2 C 0,7 C 0,3 C 57 % 3 % 95 % 95 % 1012 hPa 0,2 l/m 0,0 km/h S-SO 155 0 min 0,3 C
20.01.2018 08:08 19,2 C 0,7 C 0,3 C 57 % 3 % 95 % 96 % 1012 hPa 0,0 l/m 0,0 km/h S-SO 155 0 min 0,3 C
20.01.2018 08:03 19,2 C 0,7 C 0,3 C 57 % 1 % 95 % 96 % 1012 hPa 0,0 l/m 0,0 km/h S-SO 155 0 min 0,3 C
20.01.2018 07:58 19,2 C 0,7 C 0,3 C 57 % 1 % 95 % 96 % 1012 hPa 0,0 l/m 0,0 km/h S-SO 155 0 min 0,3 C
20.01.2018 07:53 19,1 C 0,7 C 0,3 C 58 % 1 % 95 % 96 % 1012 hPa 0,0 l/m 0,0 km/h S-SO 155 0 min 0,3 C
20.01.2018 07:48 19,1 C 0,7 C 0,3 C 58 % 0 % 95 % 96 % 1012 hPa 0,2 l/m 0,0 km/h S-SO 155 0 min 0,3 C
20.01.2018 07:43 19,1 C 0,7 C 0,2 C 58 % 0 % 95 % 96 % 1012 hPa 0,0 l/m 0,0 km/h S-SO 155 0 min 0,2 C
20.01.2018 07:38 19,1 C 0,7 C 0,2 C 58 % 0 % 95 % 95 % 1012 hPa 0,0 l/m 0,0 km/h S-SO 155 0 min 0,2 C
20.01.2018 07:33 19,1 C 0,7 C 0,2 C 58 % 0 % 95 % 95 % 1012 hPa 0,2 l/m 0,0 km/h S-SO 155 0 min 0,2 C
20.01.2018 07:28 19,1 C 0,7 C 0,1 C 58 % 0 % 95 % 95 % 1012 hPa 0,0 l/m 0,0 km/h S-SO 155 0 min 0,1 C
20.01.2018 07:23 19,2 C 0,7 C 0,1 C 58 % 0 % 95 % 95 % 1012 hPa 0,0 l/m 0,6 km/h S-SO 155 0 min 0,1 C
20.01.2018 07:18 19,1 C 0,7 C 0,1 C 58 % 0 % 95 % 95 % 1012 hPa 0,0 l/m 0,0 km/h S-SO 155 0 min 0,1 C
20.01.2018 07:13 19,2 C 0,7 C 0,0 C 58 % 0 % 95 % 95 % 1012 hPa 0,2 l/m 0,0 km/h S-SO 155 0 min 0,0 C
20.01.2018 07:08 19,2 C 0,7 C 0,0 C 58 % 0 % 95 % 95 % 1012 hPa 0,0 l/m 0,0 km/h S-SO 155 0 min 0,0 C
20.01.2018 07:03 19,2 C 0,7 C 0,0 C 58 % 0 % 95 % 95 % 1012 hPa 0,0 l/m 0,0 km/h S-SO 155 0 min 0,0 C
20.01.2018 06:58 19,2 C 0,7 C 0,0 C 58 % 0 % 95 % 95 % 1012 hPa 0,0 l/m 0,0 km/h S-SO 155 0 min 0,0 C
20.01.2018 06:53 19,2 C 0,7 C 0,0 C 58 % 0 % 95 % 95 % 1012 hPa 0,0 l/m 0,0 km/h S-SO 155 0 min 0,0 C
20.01.2018 06:48 19,2 C 0,7 C 0,0 C 58 % 0 % 95 % 95 % 1012 hPa 0,2 l/m 0,0 km/h S-SO 155 0 min 0,0 C
20.01.2018 06:43 19,2 C 0,7 C 0,0 C 58 % 0 % 95 % 95 % 1012 hPa 0,0 l/m 0,0 km/h S-SO 155 0 min 0,0 C
20.01.2018 06:38 19,2 C 0,7 C 0,0 C 58 % 0 % 95 % 95 % 1012 hPa 0,2 l/m 0,0 km/h S-SO 155 0 min 0,0 C
20.01.2018 06:33 19,2 C 0,7 C 0,0 C 58 % 0 % 95 % 95 % 1012 hPa 0,0 l/m 0,0 km/h S-SO 155 0 min 0,0 C
20.01.2018 06:28 19,2 C 0,7 C 0,0 C 58 % 0 % 95 % 94 % 1012 hPa 0,0 l/m 0,0 km/h S-SO 155 0 min 0,0 C
20.01.2018 06:23 19,2 C 0,7 C 0,0 C 58 % 0 % 95 % 94 % 1012 hPa 0,0 l/m 0,0 km/h S-SO 155 0 min 0,0 C
20.01.2018 06:18 19,2 C 0,7 C 0,0 C 58 % 0 % 95 % 94 % 1012 hPa 0,0 l/m 0,0 km/h S-SO 155 0 min 0,0 C
20.01.2018 06:13 19,2 C 0,7 C 0,0 C 58 % 0 % 95 % 94 % 1012 hPa 0,0 l/m 0,0 km/h S-SO 155 0 min 0,0 C
20.01.2018 06:08 19,2 C 0,7 C 0,0 C 58 % 0 % 95 % 94 % 1012 hPa 0,2 l/m 0,0 km/h S-SO 155 0 min 0,0 C
20.01.2018 06:03 19,2 C 0,7 C 0,0 C 58 % 0 % 95 % 95 % 1012 hPa 0,0 l/m 0,0 km/h S-SO 155 0 min 0,0 C
20.01.2018 05:58 19,2 C 0,7 C 0,0 C 58 % 0 % 95 % 95 % 1012 hPa 0,2 l/m 0,0 km/h S-SO 155 0 min 0,0 C
20.01.2018 05:53 19,2 C 0,7 C 0,0 C 58 % 0 % 95 % 95 % 1012 hPa 0,2 l/m 0,0 km/h S-SO 160 0 min 0,0 C
20.01.2018 05:48 19,2 C 0,7 C 0,1 C 58 % 0 % 95 % 95 % 1012 hPa 0,2 l/m 0,0 km/h S-SO 160 0 min 0,1 C
20.01.2018 05:43 19,2 C 0,7 C 0,1 C 58 % 0 % 95 % 95 % 1012 hPa 0,2 l/m 0,6 km/h S-SO 160 0 min 0,1 C
20.01.2018 05:38 19,2 C 0,7 C 0,1 C 58 % 0 % 95 % 94 % 1012 hPa 0,2 l/m 3,5 km/h S-SO22.5 160 0 min 0,1 C
20.01.2018 05:33 19,2 C 0,7 C 0,0 C 58 % 0 % 95 % 94 % 1012 hPa 0,0 l/m 0,0 km/h S-SO 155 0 min 0,0 C
20.01.2018 05:28 19,2 C 0,7 C 0,0 C 58 % 0 % 95 % 94 % 1012 hPa 0,2 l/m 0,0 km/h S-SO 155 0 min 0,0 C
20.01.2018 05:23 19,2 C 0,7 C 0,0 C 58 % 0 % 95 % 94 % 1012 hPa 0,0 l/m 0,1 km/h S-SO 155 0 min 0,0 C
20.01.2018 05:18 19,2 C 0,7 C 0,0 C 58 % 0 % 95 % 94 % 1012 hPa 0,0 l/m 0,0 km/h S-SO 160 0 min 0,0 C
20.01.2018 05:13 19,2 C 0,7 C 0,1 C 58 % 0 % 95 % 94 % 1012 hPa 0,2 l/m 3,6 km/h S-SW67.5 205 0 min 0,1 C
20.01.2018 05:08 19,2 C 0,7 C 0,1 C 58 % 0 % 95 % 94 % 1012 hPa 0,0 l/m 0,0 km/h N-NW 330 0 min 0,1 C
20.01.2018 05:03 19,2 C 0,7 C 0,1 C 58 % 0 % 95 % 93 % 1012 hPa 0,0 l/m 7,5 km/h N-NW 335 0 min -2,5 C
20.01.2018 04:58 19,2 C 0,7 C 0,1 C 58 % 0 % 95 % 93 % 1012 hPa 0,2 l/m 1,1 km/h W45 260 0 min 0,1 C
20.01.2018 04:53 19,2 C 0,7 C 0,1 C 58 % 0 % 95 % 93 % 1012 hPa 0,0 l/m 0,0 km/h W-SW 240 0 min 0,1 C
20.01.2018 04:48 19,2 C 0,7 C 0,1 C 58 % 0 % 95 % 93 % 1012 hPa 0,2 l/m 0,0 km/h W-SW 240 0 min 0,1 C
20.01.2018 04:43 19,2 C 0,7 C 0,1 C 58 % 0 % 95 % 92 % 1013 hPa 0,0 l/m 0,0 km/h W-SW 240 0 min 0,1 C
20.01.2018 04:38 19,2 C 0,7 C 0,1 C 58 % 0 % 95 % 92 % 1013 hPa 0,0 l/m 0,0 km/h W-SW 240 0 min 0,1 C
20.01.2018 04:33 19,2 C 0,7 C 0,2 C 58 % 0 % 95 % 92 % 1013 hPa 0,0 l/m 0,0 km/h W-SW 240 0 min 0,2 C
20.01.2018 04:28 19,2 C 0,7 C 0,2 C 58 % 0 % 95 % 92 % 1013 hPa 0,0 l/m 0,0 km/h W-SW 240 0 min 0,2 C
20.01.2018 04:23 19,2 C 0,7 C 0,3 C 58 % 0 % 95 % 92 % 1013 hPa 0,0 l/m 0,0 km/h W-SW 240 0 min 0,3 C
20.01.2018 04:18 19,3 C 0,7 C 0,3 C 58 % 0 % 95 % 92 % 1013 hPa 0,0 l/m 0,0 km/h W-SW 240 0 min 0,3 C
20.01.2018 04:13 19,2 C 0,7 C 0,4 C 58 % 0 % 95 % 91 % 1013 hPa 0,0 l/m 0,0 km/h W-SW 240 0 min 0,4 C
20.01.2018 04:08 19,3 C 0,7 C 0,5 C 58 % 0 % 95 % 91 % 1013 hPa 0,0 l/m 0,0 km/h W-SW 240 0 min 0,5 C
20.01.2018 04:03 19,3 C 0,7 C 0,7 C 58 % 0 % 95 % 91 % 1013 hPa 0,0 l/m 0,0 km/h W-SW 240 0 min 0,7 C
20.01.2018 03:58 19,3 C 0,7 C 0,7 C 58 % 0 % 95 % 91 % 1013 hPa 0,0 l/m 0,0 km/h W-SW 240 0 min 0,7 C
20.01.2018 03:53 19,3 C 0,7 C 0,9 C 58 % 0 % 95 % 91 % 1013 hPa 0,0 l/m 0,0 km/h W-SW 240 0 min 0,9 C
20.01.2018 03:48 19,3 C 0,7 C 1,2 C 57 % 0 % 95 % 91 % 1013 hPa 0,0 l/m 2,8 km/h W-SW 240 0 min 1,2 C
20.01.2018 03:43 19,3 C 0,7 C 1,3 C 57 % 0 % 95 % 92 % 1013 hPa 0,0 l/m 5,3 km/h W-SW45 245 0 min -0,2 C
20.01.2018 03:38 19,3 C 0,7 C 1,6 C 57 % 0 % 95 % 92 % 1013 hPa 0,0 l/m 5,1 km/h W-SW22.5 240 0 min 0,2 C
20.01.2018 03:33 19,3 C 0,7 C 1,9 C 57 % 0 % 95 % 93 % 1013 hPa 0,4 l/m 15,0 km/h SW67.5 230 0 min -2,1 C
20.01.2018 03:28 19,3 C 0,7 C 1,9 C 57 % 0 % 95 % 93 % 1013 hPa 0,2 l/m 16,3 km/h W-SW67.5 240 0 min -2,3 C
20.01.2018 03:23 19,3 C 0,7 C 2,1 C 57 % 0 % 95 % 94 % 1013 hPa 0,0 l/m 15,2 km/h W-SW67.5 250 0 min -1,9 C
20.01.2018 03:18 19,3 C 0,7 C 2,1 C 57 % 0 % 95 % 94 % 1013 hPa 0,0 l/m 15,0 km/h S-SW45 205 0 min -1,8 C
20.01.2018 03:13 19,3 C 0,7 C 2,1 C 57 % 0 % 95 % 94 % 1013 hPa 0,0 l/m 15,0 km/h S-SW45 205 0 min -1,8 C
20.01.2018 03:08 19,4 C 0,7 C 2,1 C 57 % 0 % 95 % 94 % 1013 hPa 0,0 l/m 14,1 km/h S-SW22.5 200 0 min -1,7 C
20.01.2018 03:03 19,4 C 0,7 C 2,1 C 57 % 0 % 95 % 94 % 1013 hPa 0,0 l/m 0,0 km/h SW 225 0 min 2,1 C
20.01.2018 02:58 19,4 C 0,7 C 2,1 C 57 % 0 % 95 % 94 % 1013 hPa 0,0 l/m 0,0 km/h SW 225 0 min 2,1 C
20.01.2018 02:53 19,4 C 0,7 C 2,1 C 57 % 0 % 95 % 94 % 1013 hPa 0,0 l/m 0,0 km/h SW 225 0 min 2,1 C
20.01.2018 02:48 19,4 C 0,7 C 2,1 C 57 % 0 % 95 % 94 % 1013 hPa 0,0 l/m 0,7 km/h SW 225 0 min 2,1 C
20.01.2018 02:43 19,4 C 0,7 C 2,1 C 57 % 0 % 95 % 94 % 1013 hPa 0,0 l/m 0,0 km/h SW 225 0 min 2,1 C
20.01.2018 02:38 19,4 C 0,7 C 2,1 C 57 % 0 % 95 % 94 % 1013 hPa 0,0 l/m 0,0 km/h SW 225 0 min 2,1 C
20.01.2018 02:33 19,4 C 0,7 C 2,1 C 57 % 0 % 95 % 94 % 1013 hPa 0,0 l/m 0,0 km/h SW 225 0 min 2,1 C
20.01.2018 02:28 19,4 C 0,7 C 2,1 C 57 % 0 % 95 % 95 % 1014 hPa 0,0 l/m 0,4 km/h SW 225 0 min 2,1 C
20.01.2018 02:23 19,4 C 0,7 C 2,1 C 57 % 0 % 95 % 95 % 1014 hPa 0,0 l/m 0,3 km/h SW 225 0 min 2,1 C
20.01.2018 02:18 19,4 C 0,7 C 2,1 C 57 % 0 % 95 % 95 % 1014 hPa 0,0 l/m 0,8 km/h SW 225 0 min 2,1 C
20.01.2018 02:14 19,5 C 0,7 C 2,1 C 57 % 0 % 95 % 95 % 1014 hPa 0,0 l/m 10,0 km/h S-SW45 210 0 min -0,8 C
20.01.2018 02:08 19,4 C 0,7 C 2,1 C 57 % 0 % 95 % 95 % 1014 hPa 0,0 l/m 5,9 km/h S-SO45 165 0 min 0,4 C
20.01.2018 02:03 19,5 C 0,7 C 2,1 C 57 % 0 % 95 % 95 % 1014 hPa 0,0 l/m 7,5 km/h S-SO45 155 0 min -0,1 C
20.01.2018 01:58 19,5 C 0,7 C 2,1 C 57 % 0 % 95 % 95 % 1014 hPa 0,0 l/m 2,0 km/h S-SO22.5 160 0 min 2,1 C
20.01.2018 01:53 19,5 C 0,7 C 2,0 C 57 % 0 % 95 % 95 % 1014 hPa 0,0 l/m 3,0 km/h S 180 0 min 2,0 C
20.01.2018 01:48 19,5 C 0,7 C 2,0 C 57 % 0 % 95 % 95 % 1014 hPa 0,0 l/m 4,7 km/h S 180 0 min 0,8 C
20.01.2018 01:43 19,5 C 0,7 C 2,0 C 57 % 0 % 95 % 94 % 1014 hPa 0,0 l/m 6,2 km/h S-SW22.5 210 0 min 0,2 C
20.01.2018 01:38 19,5 C 0,7 C 1,9 C 57 % 0 % 95 % 95 % 1014 hPa 0,0 l/m 0,0 km/h S-SW 195 0 min 1,9 C
20.01.2018 01:33 19,5 C 0,7 C 1,9 C 57 % 0 % 95 % 95 % 1014 hPa 0,0 l/m 5,5 km/h S-SW 195 0 min 0,4 C
20.01.2018 01:28 19,5 C 0,7 C 1,9 C 57 % 0 % 95 % 95 % 1014 hPa 0,0 l/m 3,1 km/h S-SW 195 0 min 1,9 C
20.01.2018 01:23 19,6 C 0,7 C 1,9 C 57 % 0 % 95 % 94 % 1014 hPa 0,0 l/m 6,5 km/h S-SW45 210 0 min -0,0 C
20.01.2018 01:18 19,6 C 0,7 C 1,9 C 57 % 0 % 95 % 94 % 1014 hPa 0,0 l/m 9,9 km/h W-SW45 250 0 min -1,0 C
20.01.2018 01:13 19,6 C 0,7 C 1,8 C 57 % 0 % 95 % 94 % 1014 hPa 0,0 l/m 0,7 km/h W-SW 250 0 min 1,8 C
20.01.2018 01:08 19,6 C 0,7 C 1,8 C 57 % 0 % 95 % 94 % 1014 hPa 0,0 l/m 0,7 km/h W-SW 250 0 min 1,8 C
20.01.2018 01:03 19,6 C 0,7 C 1,8 C 57 % 0 % 95 % 94 % 1014 hPa 0,0 l/m 4,7 km/h W-SW 250 0 min 0,6 C
20.01.2018 00:58 19,6 C 0,7 C 1,7 C 57 % 0 % 95 % 94 % 1014 hPa 0,0 l/m 5,2 km/h W-SW22.5 250 0 min 0,3 C
20.01.2018 00:53 19,6 C 0,7 C 1,7 C 57 % 0 % 95 % 94 % 1014 hPa 0,0 l/m 5,5 km/h W-SW 240 0 min 0,1 C
20.01.2018 00:48 19,6 C 0,7 C 1,7 C 57 % 0 % 95 % 94 % 1014 hPa 0,0 l/m 1,0 km/h SW 230 0 min 1,7 C
20.01.2018 00:43 19,6 C 0,7 C 1,7 C 57 % 0 % 95 % 94 % 1014 hPa 0,0 l/m 0,0 km/h SW 230 0 min 1,7 C
20.01.2018 00:38 19,6 C 0,6 C 1,7 C 57 % 0 % 95 % 94 % 1014 hPa 0,0 l/m 0,0 km/h SW 230 0 min 1,7 C
20.01.2018 00:33 19,6 C 0,6 C 1,7 C 57 % 0 % 95 % 94 % 1014 hPa 0,0 l/m 0,7 km/h SW 230 0 min 1,7 C
20.01.2018 00:28 19,6 C 1,0 C 1,7 C 57 % 0 % 94 % 94 % 1014 hPa 0,0 l/m 4,6 km/h SW 230 0 min 0,5 C
20.01.2018 00:23 19,6 C 1,0 C 1,7 C 56 % 0 % 94 % 94 % 1014 hPa 0,0 l/m 5,4 km/h W45 270 0 min 0,2 C
20.01.2018 00:18 19,7 C 1,0 C 1,7 C 56 % 0 % 94 % 94 % 1014 hPa 0,0 l/m 3,7 km/h W 275 0 min 1,7 C
20.01.2018 00:13 19,6 C 1,0 C 1,8 C 56 % 0 % 94 % 94 % 1014 hPa 0,0 l/m 4,6 km/h W 270 0 min 0,6 C
20.01.2018 00:08 19,7 C 1,0 C 1,8 C 56 % 0 % 94 % 95 % 1014 hPa 0,0 l/m 0,4 km/h W 270 0 min 1,8 C
20.01.2018 00:03 19,7 C 1,0 C 1,8 C 56 % 0 % 94 % 95 % 1014 hPa 0,0 l/m 8,2 km/h W45 275 0 min -0,7 C
_ Min-Zeit 07:18 00:33 05:18 10:13 - 00:03 03:48 18:23 - 00:38 - - - 05:03
Minimum _ 19,1 C 0,6 C 0,0 C 53 % - 94 % 91 % 999 hPa - 0,0 km/h - - - -2,5 C
_ Max-Zeit 20:53 13:53 13:38 03:53 09:48 00:33 12:23 00:03 03:33 03:28 - - 00:03 13:43
Maximum _ 20,9 C 3,7 C 3,6 C 58 % 45 % 95 % 98 % 1014 hPa 0,4 l/m 16,3 km/h
W-SW
- - 0 min 3,6 C
Durchschnitt _ 19,8 C 2,1 C 1,7 C 56 % #0 min. 95 % 96 % 1007 hPa #11,2 l/m 3,5 km/h S-SO - #0 min. 0,9 C